User: anonymous
Location: Unspecified
(0.0000°N, 0.0000°E)
Time: 08:55:36
(UTC+02:00)
Language:

Cosmos 1953 Rocket - Orbit

View from above orbital plane
View from above orbital plane
View from above satellite
View from above satellite

Ground track
Ground track

The orbit data is extracted from the following two-line orbital elements,

1 19211U 88050B   14244.69868704  .00000307  00000-0  35224-4 0  3240
2 19211 082.5238 075.6612 0021187 232.7073 174.3489 14.82438816415713
Epoch (UTC): 01 September 2014 16:46:06
Eccentricity: 0.0021187
inclination: 82.5238°
perigee height: 607 km
apogee height: 636 km
right ascension of ascending node: 75.6612°
argument of perigee: 232.7073°
revolutions per day: 14.82438816
mean anomaly at epoch: 174.3489°
orbit number at epoch: 41571

The dashed part of the orbit path shows where the satellite is in the earth's shadow,  

DLR